Regional Weather Roundup
Issued by NWS

Home | Current Version | Previous Version | Graphics & Text | Print | Product List | Glossary On
Versions: 1 2 3 4 5 6 7 8 9 10 11 12 13 14 15 16 17 18 19 20 21 22 23 24 25 26 27 28 29 30 31 32 33 34 35 36 37 38 39 40 41 42 43 44 45 46 47 48 49 50
000
ASUS44 KMEG 262310
RWRTN
TENNESSEE HOURLY STATE WEATHER ROUNDUP
NATIONAL WEATHER SERVICE MEMPHIS TN
600 PM CDT THU MAY 26 2016

TNZ002-004-019-021-049-052-054-088>092-270000-
WEST TENNESSEE

CITY           SKY/WX    TMP DP  RH WIND       PRES   REMARKS
MEMPHIS INTL   CLOUDY    80  70  71 W6        29.92F THUNDER
NWS MEMPHIS      N/A     85 N/A N/A MISG        N/A
JACKSON        TSTM      68  66  93 NE17G23   30.00R FOG
DYERSBURG      CLOUDY    68  63  83 E10       29.97F
UNION CITY     PTSUNNY   66  66 100 E12       29.96F
PARIS          CLOUDY    64  63  94 E12       30.03F
LEXINGTON      PTSUNNY   68  64  88 N23G41    30.00R
$$

TNZ008-025-027-028-033-062-065-066-270000-
NORTH MIDDLE TENNESSEE

CITY           SKY/WX    TMP DP  RH WIND       PRES   REMARKS
NASHVILLE      CLOUDY    73  63  70 NE15      30.05R
CLARKSVILLE    LGT RAIN  68  64  87 E7        30.06F
SMYRNA         CLOUDY    74  64  70 NE13      30.06R
COOKEVILLE     PTSUNNY   75  64  69 NE13      30.09R
CROSSVILLE     SUNNY     78  62  57 S3        30.12S
$$

TNZ061-075-076-078-094-096-097-270000-
SOUTH MIDDLE TENNESSEE

CITY           SKY/WX    TMP DP  RH WIND       PRES   REMARKS
FAYETTEVILLE   MOSUNNY   86  63  45 SE12      30.03F
TULLAHOMA      SUNNY     82  59  44 SW5       30.06S
WINCHESTER     SUNNY     88  63  42 S7        30.05S
MCMINNVILLE    MOSUNNY   86  64  48 CALM      30.05S
COLUMBIA       SUNNY     84  64  51 SE5       30.00R
SHELBYVILLE    MOSUNNY   88  63  42 S10       30.04S
$$

TNZ017-018-042-046-047-270000-
NORTHEAST TENNESSEE

CITY           SKY/WX    TMP DP  RH WIND       PRES   REMARKS
TRI CITIES     MOSUNNY   76  62  62 VRB3      30.13F
$$

TNZ012-013-036-069-073-074-270000-
CENTRAL EAST TENNESSEE

CITY           SKY/WX    TMP DP  RH WIND       PRES   REMARKS
KNOXVILLE      MOSUNNY   82  62  50 N7        30.07S
OAK RIDGE      SUNNY     83  60  45 VRB3      30.10R
GATLINBURG     SUNNY     79  63  57 NE7       30.09R
$$

TNZ083-085-099-270000-
SOUTHEAST TENNESSEE

CITY           SKY/WX    TMP DP  RH WIND       PRES   REMARKS
CHATTANOOGA    MOSUNNY   89  57  33 S9        30.04F
$$

SKY/WX REPORTED AS FAIR MEANS FEW OR NO CLOUDS BELOW
12 THOUSAND FEET.





USA.gov is the U.S. government's official web portal to all federal, state and local government web resources and services.